When you browse on this site, cookies collect data to enhance your experience and personalize the content and advertising you see.
Visit our Privacy Policy to learn more. By continuing to use the site, you agree to this use of cookies and data.
EN

Hourly Weather Vasilevka

Today, 3 August, Monday

Time Temperature Precipitation Wind Pressure Humidity
00:00 +12°C° 0 mm 0 mps 747 mmHg 88%
01:00 +12°C° 0 mm 0 mps 747 mmHg 88%
02:00 +12°C° 0 mm 0 mps 748 mmHg 88%
03:00 +12°C° 0 mm 0 mps 748 mmHg 88%
04:00 +12°C° 0 mm 0 mps 748 mmHg 88%
05:00 +12°C° 0 mm 0 mps 748 mmHg 88%
06:00 +15°C° 0 mm 1 mps 748 mmHg 82%
07:00 +18°C° 0 mm 1 mps 749 mmHg 76%
08:00 +20°C° 0 mm 1 mps 749 mmHg 69%
09:00 +21°C° 0 mm 1 mps 749 mmHg 65%
10:00 +21°C° 0 mm 2 mps 749 mmHg 61%
11:00 +23°C° 0 mm 2 mps 749 mmHg 56%
12:00 +24°C° 0 mm 2 mps 749 mmHg 55%
13:00 +24°C° 0 mm 2 mps 749 mmHg 53%
14:00 +25°C° 0 mm 2 mps 748 mmHg 52%
15:00 +24°C° 0 mm 2 mps 748 mmHg 55%
16:00 +24°C° 0 mm 2 mps 748 mmHg 57%
17:00 +24°C° 0 mm 3 mps 748 mmHg 60%
18:00 +21°C° 0 mm 3 mps 748 mmHg 65%
19:00 +19°C° 0 mm 3 mps 748 mmHg 71%
20:00 +18°C° 0 mm 2 mps 748 mmHg 76%
21:00 +17°C° 0 mm 2 mps 748 mmHg 77%
22:00 +16°C° 0 mm 2 mps 748 mmHg 78%
23:00 +16°C° 0 mm 2 mps 748 mmHg 79%

Tomorrow, 4 August, Tuesday

Time Temperature Precipitation Wind Pressure Humidity
00:00 +14°C° 0 mm 3 mps 748 mmHg 79%
01:00 +14°C° 0 mm 3 mps 749 mmHg 79%
02:00 +14°C° 0 mm 3 mps 749 mmHg 79%
03:00 +13°C° 0 mm 3 mps 748 mmHg 80%
04:00 +13°C° 0 mm 3 mps 748 mmHg 81%
05:00 +13°C° 0 mm 3 mps 748 mmHg 82%
06:00 +16°C° 0 mm 3 mps 748 mmHg 78%
07:00 +17°C° 0 mm 3 mps 749 mmHg 74%
08:00 +19°C° 0 mm 4 mps 749 mmHg 70%
09:00 +21°C° 0 mm 4 mps 749 mmHg 65%
10:00 +22°C° 0 mm 4 mps 749 mmHg 61%
11:00 +25°C° 0 mm 4 mps 749 mmHg 57%
12:00 +26°C° 0 mm 4 mps 749 mmHg 55%
13:00 +26°C° 0 mm 4 mps 749 mmHg 54%
14:00 +27°C° 0 mm 4 mps 749 mmHg 52%
15:00 +26°C° 0 mm 4 mps 748 mmHg 55%
16:00 +26°C° 0 mm 4 mps 748 mmHg 58%
17:00 +26°C° 0 mm 3 mps 748 mmHg 61%
18:00 +24°C° 0 mm 3 mps 748 mmHg 66%
19:00 +21°C° 0 mm 3 mps 748 mmHg 72%
20:00 +20°C° 0 mm 3 mps 748 mmHg 77%
21:00 +19°C° 0 mm 3 mps 749 mmHg 78%
22:00 +18°C° 0 mm 3 mps 749 mmHg 78%
23:00 +18°C° 0 mm 3 mps 749 mmHg 78%

Day after tomorrow, 5 August, Wednesday

Time Temperature Precipitation Wind Pressure Humidity
00:00 +17°C° 0 mm 3 mps 749 mmHg 78%
01:00 +17°C° 0 mm 3 mps 749 mmHg 78%
02:00 +16°C° 0 mm 3 mps 749 mmHg 78%
03:00 +16°C° 0 mm 3 mps 749 mmHg 79%
04:00 +16°C° 0 mm 3 mps 749 mmHg 79%
05:00 +14°C° 0 mm 3 mps 749 mmHg 80%
06:00 +17°C° 0 mm 3 mps 750 mmHg 76%
07:00 +19°C° 0 mm 3 mps 750 mmHg 72%
08:00 +21°C° 0 mm 3 mps 750 mmHg 67%
09:00 +24°C° 0 mm 3 mps 750 mmHg 63%
10:00 +25°C° 0 mm 3 mps 751 mmHg 59%
11:00 +27°C° 0 mm 3 mps 751 mmHg 55%
12:00 +28°C° 0 mm 3 mps 751 mmHg 53%
13:00 +28°C° 0 mm 3 mps 751 mmHg 50%
14:00 +29°C° 0 mm 3 mps 751 mmHg 47%
15:00 +28°C° 0 mm 2 mps 751 mmHg 51%
16:00 +28°C° 0 mm 2 mps 751 mmHg 54%
17:00 +28°C° 0 mm 2 mps 751 mmHg 57%
18:00 +26°C° 0 mm 2 mps 751 mmHg 61%
19:00 +24°C° 0 mm 1 mps 751 mmHg 66%
20:00 +22°C° 0 mm 1 mps 751 mmHg 70%
21:00 +21°C° 0 mm 1 mps 751 mmHg 72%
22:00 +21°C° 0 mm 1 mps 751 mmHg 74%
23:00 +20°C° 0 mm 1 mps 752 mmHg 76%

6 August, Thursday

Time Temperature Precipitation Wind Pressure Humidity
00:00 +19°C° 0 mm 1 mps 752 mmHg 78%
01:00 +19°C° 0 mm 1 mps 752 mmHg 79%
02:00 +19°C° 0 mm 1 mps 752 mmHg 80%
03:00 +18°C° 0 mm 1 mps 752 mmHg 81%
04:00 +18°C° 0 mm 1 mps 752 mmHg 81%
05:00 +16°C° 0 mm 0 mps 752 mmHg 82%
06:00 +18°C° 0 mm 0 mps 753 mmHg 76%
07:00 +20°C° 0 mm 0 mps 753 mmHg 70%
08:00 +22°C° 0 mm 0 mps 753 mmHg 64%
09:00 +25°C° 0 mm 1 mps 753 mmHg 60%
10:00 +27°C° 0 mm 1 mps 753 mmHg 55%
11:00 +28°C° 0 mm 1 mps 753 mmHg 51%
12:00 +29°C° 0 mm 1 mps 753 mmHg 49%
13:00 +29°C° 0 mm 1 mps 753 mmHg 46%
14:00 +29°C° 0 mm 2 mps 753 mmHg 44%
15:00 +29°C° 0 mm 2 mps 753 mmHg 47%
16:00 +29°C° 0 mm 2 mps 753 mmHg 50%
17:00 +29°C° 0 mm 2 mps 752 mmHg 53%
18:00 +27°C° 0 mm 1 mps 752 mmHg 58%
19:00 +25°C° 0 mm 1 mps 753 mmHg 64%
20:00 +23°C° 0 mm 1 mps 753 mmHg 69%
21:00 +22°C° 0 mm 1 mps 753 mmHg 72%
22:00 +22°C° 0 mm 1 mps 753 mmHg 76%
23:00 +21°C° 0 mm 1 mps 753 mmHg 79%

7 August, Friday

Time Temperature Precipitation Wind Pressure Humidity
00:00 +20°C° 0 mm 2 mps 753 mmHg 84%
01:00 +19°C° 0 mm 2 mps 753 mmHg 88%
02:00 +19°C° 0 mm 2 mps 753 mmHg 93%
03:00 +18°C° 0 mm 2 mps 753 mmHg 94%
04:00 +18°C° 0 mm 3 mps 753 mmHg 96%
05:00 +18°C° 0 mm 3 mps 754 mmHg 97%
06:00 +19°C° 0 mm 3 mps 754 mmHg 92%
07:00 +20°C° 0 mm 4 mps 754 mmHg 88%
08:00 +21°C° 0 mm 4 mps 754 mmHg 83%
09:00 +22°C° 0 mm 5 mps 754 mmHg 77%
10:00 +23°C° 0 mm 5 mps 754 mmHg 71%
11:00 +26°C° 0 mm 5 mps 754 mmHg 65%
12:00 +26°C° 0 mm 5 mps 754 mmHg 62%
13:00 +26°C° 0 mm 5 mps 753 mmHg 60%
14:00 +27°C° 0 mm 6 mps 753 mmHg 57%
15:00 +26°C° 0 mm 5 mps 753 mmHg 59%
16:00 +26°C° 0 mm 5 mps 753 mmHg 61%
17:00 +25°C° 0 mm 5 mps 753 mmHg 63%
18:00 +23°C° 0 mm 5 mps 753 mmHg 69%
19:00 +21°C° 0 mm 4 mps 753 mmHg 75%
20:00 +20°C° 0 mm 4 mps 753 mmHg 80%
21:00 +19°C° 0 mm 4 mps 753 mmHg 82%
22:00 +18°C° 0 mm 3 mps 753 mmHg 84%
23:00 +18°C° 0 mm 3 mps 753 mmHg 86%

8 August, Saturday

Time Temperature Precipitation Wind Pressure Humidity
00:00 +17°C° 0 mm 3 mps 753 mmHg 87%
01:00 +17°C° 0 mm 3 mps 753 mmHg 89%
02:00 +16°C° 0 mm 3 mps 753 mmHg 90%
03:00 +16°C° 0 mm 3 mps 752 mmHg 90%
04:00 +14°C° 0 mm 3 mps 752 mmHg 90%
05:00 +14°C° 0 mm 3 mps 752 mmHg 91%
06:00 +17°C° 0 mm 3 mps 752 mmHg 85%
07:00 +18°C° 0 mm 4 mps 752 mmHg 79%
08:00 +20°C° 0 mm 4 mps 752 mmHg 73%
09:00 +21°C° 0 mm 4 mps 752 mmHg 68%
10:00 +23°C° 0 mm 5 mps 752 mmHg 63%
11:00 +25°C° 0 mm 5 mps 752 mmHg 58%
12:00 +25°C° 0.1 mm 5 mps 752 mmHg 57%
13:00 +26°C° 0.1 mm 5 mps 751 mmHg 57%
14:00 +26°C° 0.1 mm 4 mps 751 mmHg 56%
15:00 +26°C° 0 mm 4 mps 751 mmHg 58%
16:00 +25°C° 0 mm 4 mps 751 mmHg 60%
17:00 +25°C° 0 mm 4 mps 751 mmHg 61%
18:00 +22°C° 0 mm 3 mps 751 mmHg 67%
19:00 +21°C° 0 mm 3 mps 751 mmHg 73%
20:00 +19°C° 0 mm 3 mps 750 mmHg 78%
21:00 +18°C° 0 mm 3 mps 750 mmHg 80%
22:00 +17°C° 0 mm 3 mps 750 mmHg 82%
23:00 +17°C° 0 mm 2 mps 751 mmHg 84%
Show more